星链-31769 (STARLINK-31769 )

导读 | 星芒AI

STARLINK-31769 是 SpaceX Starlink 卫星互联网项目中的第31769颗卫星。该卫星属于星链计划的低轨卫星群,旨在为全球用户提供高速互联网服务。它运行在近地轨道,具备先进的通信技术,支持宽带数据传输。作为星链计划的一部分,STARLINK-31769 有助于扩大网络覆盖范围,提升连接稳定性,特别是在偏远和网络基础设施薄弱的地区。该卫星遵循 SpaceX 的可持续航天标准,并定期进行轨道调整以避免碰撞。

基本信息
目录编号:
59617
目录名称:
STARLINK-31769
国际标识:
2024-080S
轨道中心:
EARTH
卫星名称:
星链-31769
卫星全名:
星链-31769 (STARLINK-31769 )
卫星状态:
在轨 (已飞行553 天)
发射日期:
2024-04-28 UTC
国别 :
美国 (US)
星等 :
--
轨道信息
数据来源 国际轨道数据
星历时间: 2025-11-01T23:06:33+0800
19小时前
查看轨道信息
半长轴: 6861.224km
偏心率: 0.0000628
轨道倾角: 43.002°
近地点辐角 286.903°
升交点赤经 41.456°
平近点角 73.175°
近地点: 482.658km
远地点: 483.52km
周期: 94.268分钟
每日圈数: 15.275676
详细信息
固有亮度:
5
最大亮度:
1.5
卫星平台:
Starlink v2.0 mini
覆盖范围:
全球
运营商:
太空探索技术公司
运营商所在国:
美国
制造商(研发单位):
太空探索技术公司
制造商所在国:
美国
使用方式:
暂无
卫星简介
星链(Starlink)计划是由太空探索技术公司(SpaceX)提出的一个巨型低轨卫星互联网星座项目,计划在2019年至2024年间在太空搭建由约1.2万颗卫星组成的“星链”网络,其中1584颗将部署在地球上空550千米处的近地轨道,并从2020年开始工作。该卫星仍在工作。
2D轨道图
3D轨道图
轨道高度分析图
轨道倾角分析图
轨道综合分析图
查看轨道综合分析图